Weather Roundup
Issued by NWS

Home | Current Version | Previous Version | Text Only | Print | Product List | Glossary On
Versions: 1 2 3 4 5 6 7 8 9 10 11 12 13 14 15 16 17 18 19 20 21 22 23 24 25 26 27 28 29 30 31 32 33 34 35 36 37 38 39 40 41 42 43 44 45 46 47 48 49 50
000
NZUS93 KARX 280010
HRRWXR

CURRENT HOURLY OBSERVATIONS ACROSS
MUCH OF THE UPPER MISSISSIPPI VALLEY
NATIONAL WEATHER SERVICE LA CROSSE WI
700 PM CDT MON APR 27 2015


...SOUTHEAST MINNESOTA...


CITY           SKY/WX    TMP DP  RH WIND       PRES   REMARKS
ROCHESTER      SUNNY     63  33  32 N14       30.13S
ROCHESTER/MAYO FAIR      65  30  26 N8        30.13S
WINONA         SUNNY     70  34  26 CALM      30.11S
AUSTIN         SUNNY     63  32  31 N8        30.12S
ALBERT LEA     SUNNY     66  25  20 N10       30.14S
DODGE CENTER   SUNNY     64  28  25 N12       30.14S
PRESTON        SUNNY     62  31  32 N10       30.12F
OWATONNA       SUNNY     64  21  19 N9        30.14S
FARIBAULT      SUNNY     66  25  20 N5        30.14S
$$

...ELSEWHERE IN MINNESOTA...


CITY           SKY/WX    TMP DP  RH WIND       PRES   REMARKS
MINNEAPOLIS    MOSUNNY   68  25  19 NW8       30.13F
INTNL FALLS    PTSUNNY   64  28  25 NE5       30.13F
DULUTH         MOSUNNY   67  22  18 N6        30.13S
RED WING       SUNNY     68  23  18 N7        30.11S
REDWOOD FALLS  SUNNY     69  20  15 N7        30.14S
MANKATO        SUNNY     66  23  19 NE8       30.14F
WORTHINGTON    SUNNY     64  21  19 N7        30.16S
FAIRMONT       SUNNY     68  23  18 NE8       30.13F
$$

...SOUTHWEST WISCONSIN...


CITY           SKY/WX    TMP DP  RH WIND       PRES   REMARKS
LA CROSSE      SUNNY     68  31  25 N8        30.09F
PRAIRIE DU CHI CLEAR     64  29  26 N8        30.10S
BOSCOBEL       CLEAR     67  31  26 N7        30.09F
LONE ROCK      CLEAR     67  29  24 N9        30.08S
PLATTEVILLE    CLEAR     64  33  31 N9        30.09S
FORT MC COY    CLEAR     66  28  24 NW8       30.10S
CAMP DOUGLAS   CLEAR     66  32  28 N9        30.08F
VIROQUA        FAIR      63  31  30 N7        30.10S
WIS DELLS      CLEAR     65  28  24 N8        30.08S
$$

...ELSEWHERE IN WISCONSIN...


CITY           SKY/WX    TMP DP  RH WIND       PRES   REMARKS
MILWAUKEE      PTCLDY    46  32  58 NE7       30.13F
MADISON        PTCLDY    64  31  28 N7        30.07S
GREEN BAY      CLEAR     55  38  52 E13       30.11R
EAU CLAIRE     SUNNY     68  28  22 NW7       30.10F
BLACK RVR FLS  FAIR      68  25  20 N6        30.09S
MEDFORD        CLEAR     61  31  32 N8        30.12R
WAUSAU         CLEAR     64  26  23 N8        30.08R
WIS RAPIDS     CLEAR     66  26  22 N12       30.09S
MARSHFIELD     CLEAR     65  29  25 N13       30.10R
RICE LAKE      SUNNY     65  27  24 N6        30.14S
$$

...NORTHEAST IOWA...


CITY           SKY/WX    TMP DP  RH WIND       PRES   REMARKS
DECORAH        SUNNY     63  32  31 N12       30.10S
MASON CITY     SUNNY     65  31  28 NE12      30.13S
CHARLES CITY   SUNNY     64  32  29 NE10      30.12S
OELWEIN        SUNNY     64  34  32 NE10      30.11S
$$

...ELSEWHERE IN IOWA...


CITY           SKY/WX    TMP DP  RH WIND       PRES   REMARKS
DES MOINES     MOSUNNY   67  30  25 NE10      30.10S
IOWA CITY      CLEAR     64  35  34 NE10      30.09S
FORT DODGE     SUNNY     64  34  32 NE8       30.13S
$$

...NORTHERN ILLINOIS...


CITY           SKY/WX    TMP DP  RH WIND       PRES   REMARKS
CHICAGO-OHARE  PTCLDY    50  33  52 NE12      30.11S
CHICAGO-MIDWAY PTCLDY    51  33  50 N14G20    30.12S
MOLINE         CLEAR     63  33  32 N7        30.08S
ROCKFORD       PTCLDY    62  32  32 NE9       30.10S
PEORIA         CLEAR     64  35  34 NE7       30.07S
$$

NOTE: "FAIR" INDICATES FEW OR NO CLOUDS BELOW 12,000 FEET WITH NO
SIGNIFICANT WEATHER AND/OR OBSTRUCTIONS TO VISIBILITY. WIND
SPEEDS ARE IN MILES-PER-HOUR.



USA.gov is the U.S. government's official web portal to all federal, state and local government web resources and services.